DW5338 Weather Reports


Display with metric or nautical units.
time (UTC)temp
F
wind
direction
speed
MPH
gust
MPH
rain 1hr
in
rain 24hr
in
rain mn
in
humidity
%
barometer
mb
20260905112022 61 225 5.0 10.0 0.00 0.00 0.00 42 1025.4
20260905111022 61 203 6.0 9.0 0.00 0.00 0.00 44 1025.5
20260905110022 61 203 5.0 7.0 0.00 0.00 0.00 44 1025.5
20260905105022 61 225 5.0 7.0 0.00 0.00 0.00 44 1025.7
20260905104021 62 225 5.0 8.0 0.00 0.00 0.00 44 1025.7
20260905103021 62 225 5.0 9.0 0.00 0.00 0.00 43 1025.6
20260905102021 62 225 5.0 11.0 0.00 0.00 0.00 43 1025.6
20260905101021 62 225 5.0 9.0 0.00 0.00 0.00 44 1025.5
20260905100042 62 225 6.0 13.0 0.00 0.00 0.00 44 1025.5
20260905095042 62 225 5.0 8.0 0.00 0.00 0.00 45 1025.4
20260905094021 61 225 6.0 11.0 0.00 0.00 0.00 46 1025.5
20260905093021 61 225 6.0 10.0 0.00 0.00 0.00 46 1025.2
20260905092017 61 248 4.0 8.0 0.00 0.00 0.00 47 1025.3
20260905091021 60 248 4.0 6.0 0.00 0.00 0.00 48 1025.3
20260905090021 61 248 3.0 4.0 0.00 0.00 0.00 47 1025.2
20260905085041 61 225 4.0 9.0 0.00 0.00 0.00 47 1025.1
20260905084021 61 225 5.0 10.0 0.00 0.00 0.00 47 1025.2
20260905083016 61 225 6.0 10.0 0.00 0.00 0.00 47 1025.2
20260905082021 60 225 6.0 10.0 0.00 0.00 0.00 49 1025.2
20260905081021 60 203 5.0 7.0 0.00 0.00 0.00 50 1025.1
20260905080016 58 225 7.0 11.0 0.00 0.00 0.00 52 1025.1
20260905075016 58 203 7.0 11.0 0.00 0.00 0.00 53 1024.8
20260905074021 58 203 6.0 10.0 0.00 0.00 0.00 52 1024.8
20260905073016 58 203 5.0 7.0 0.00 0.00 0.00 51 1024.8
20260905072021 59 225 7.0 15.0 0.00 0.00 0.00 50 1025.0
20260905071021 59 225 8.0 14.0 0.00 0.00 0.00 50 1025.0
20260905070021 60 225 10.0 14.0 0.00 0.00 0.00 49 1025.1
20260905065021 60 225 7.0 11.0 0.00 0.00 0.00 48 1025.3
20260905064021 60 225 7.0 11.0 0.00 0.00 0.00 47 1025.3
20260905063016 60 225 5.0 10.0 0.00 0.00 0.00 47 1025.3
20260905062022 61 225 6.0 8.0 0.00 0.00 0.00 46 1025.1
20260905061041 60 203 6.0 9.0 0.00 0.00 0.00 47 1025.2
20260905060021 60 203 6.0 9.0 0.00 0.00 0.00 48 1025.0
20260905055021 59 225 6.0 10.0 0.00 0.00 0.00 50 1024.8
20260905054015 59 203 6.0 8.0 0.00 0.00 0.00 49 1024.8
20260905053021 60 203 5.0 7.0 0.00 0.00 0.00 48 1024.8
20260905052021 60 225 4.0 6.0 0.00 0.00 0.00 47 1024.9
20260905051021 61 203 5.0 7.0 0.00 0.00 0.00 46 1024.9
20260905050015 61 203 5.0 9.0 0.00 0.00 0.00 46 1024.9
20260905045021 61 203 6.0 7.0 0.00 0.00 0.00 46 1025.0
20260905044021 61 225 4.0 6.0 0.00 0.00 0.00 45 1025.0
20260905043021 64 248 2.0 3.0 0.00 0.00 0.00 41 1025.3
20260905042041 62 225 4.0 7.0 0.00 0.00 0.00 43 1025.2
20260905041021 62 203 6.0 9.0 0.00 0.00 0.00 43 1025.2
20260905040021 63 225 5.0 8.0 0.00 0.00 0.00 43 1025.3
20260905035021 63 225 3.0 5.0 0.00 0.00 0.00 42 1025.3
20260905034021 63 225 4.0 7.0 0.00 0.00 0.00 42 1025.3
20260905033015 64 225 5.0 8.0 0.00 0.00 0.00 41 1025.4
20260905032021 64 203 4.0 6.0 0.00 0.00 0.00 41 1025.3
20260905031015 65 225 3.0 5.0 0.00 0.00 0.00 38 1025.3
20260905030021 67 225 3.0 5.0 0.00 0.00 0.00 37 1025.4
20260905025021 68 270 1.0 2.0 0.00 0.00 0.00 36 1025.4
20260905024021 68 203 2.0 3.0 0.00 0.00 0.00 35 1025.3
20260905023015 70 0.0 2.0 0.00 0.00 0.00 34 1025.4
20260905022015 70 23 1.0 2.0 0.00 0.00 0.00 34 1024.9
20260905021021 70 315 2.0 3.0 0.00 0.00 0.00 34 1024.8
20260905020021 71 338 2.0 2.0 0.00 0.00 0.00 34 1024.8
20260905015020 71 68 1.0 2.0 0.00 0.00 0.00 34 1024.5
20260905014015 71 113 1.0 2.0 0.00 0.00 0.00 33 1024.5
20260905013021 72 113 2.0 4.0 0.00 0.00 0.00 33 1024.3
20260905012020 72 113 2.0 6.0 0.00 0.00 0.00 32 1024.5
20260905011035 72 135 2.0 4.0 0.00 0.00 0.00 31 1024.5
20260905010020 73 113 3.0 7.0 0.00 0.00 0.00 30 1024.4
20260905005020 73 113 3.0 8.0 0.00 0.00 0.00 29 1024.6
20260905004020 74 113 1.0 3.0 0.00 0.00 0.00 27 1024.6
20260905003021 74 113 1.0 2.0 0.00 0.00 0.00 26 1024.5
20260905002020 74 0.0 2.0 0.00 0.00 0.00 26 1024.5
20260905001015 74 113 1.0 2.0 0.00 0.00 0.00 26 1024.5
20260905000020 74 0.0 2.0 0.00 0.00 0.00 26 1024.4
20260904235015 74 23 2.0 4.0 0.00 0.00 0.00 26 1024.4
20260904234021 74 23 2.0 5.0 0.00 0.00 0.00 26 1024.3
20260904233040 74 0 1.0 3.0 0.00 0.00 0.00 26 1024.3
20260904232015 74 45 1.0 2.0 0.00 0.00 0.00 26 1024.1
20260904231021 74 0 2.0 4.0 0.00 0.00 0.00 26 1024.0
20260904230015 74 0 3.0 5.0 0.00 0.00 0.00 26 1024.0
20260904225020 75 68 2.0 9.0 0.00 0.00 0.00 26 1024.2
20260904224055 75 23 4.0 10.0 0.00 0.00 0.00 26 1024.1
20260904223015 75 45 3.0 10.0 0.00 0.00 0.00 26 1024.2
20260904222015 75 0 8.0 12.0 0.00 0.00 0.00 26 1024.2
20260904221015 75 23 6.0 12.0 0.00 0.00 0.00 26 1024.0
20260904220040 75 338 7.0 14.0 0.00 0.00 0.00 26 1024.1
20260904215015 75 45 3.0 10.0 0.00 0.00 0.00 26 1024.1
20260904214020 75 0 6.0 11.0 0.00 0.00 0.00 26 1024.0
20260904213035 74 23 6.0 11.0 0.00 0.00 0.00 26 1023.8
20260904212021 75 45 5.0 12.0 0.00 0.00 0.00 25 1024.1
20260904211020 75 135 2.0 7.0 0.00 0.00 0.00 25 1024.0
20260904210020 76 113 5.0 12.0 0.00 0.00 0.00 25 1024.2
20260904205015 77 90 5.0 11.0 0.00 0.00 0.00 24 1024.5
20260904204015 77 113 4.0 12.0 0.00 0.00 0.00 24 1024.4
20260904203017 78 158 4.0 14.0 0.00 0.00 0.00 24 1024.7
20260904202022 76 135 6.0 19.0 0.00 0.00 0.00 25 1024.6
20260904201023 76 113 8.0 16.0 0.00 0.00 0.00 25 1024.6
20260904200023 76 135 9.0 15.0 0.00 0.00 0.00 25 1024.8
20260904195037 76 158 8.0 19.0 0.00 0.00 0.00 25 1024.7
20260904194022 76 135 4.0 14.0 0.00 0.00 0.00 25 1024.7
20260904193022 76 23 4.0 10.0 0.00 0.00 0.00 26 1024.6
20260904192017 75 45 3.0 9.0 0.00 0.00 0.00 27 1024.6
20260904191017 76 90 3.0 8.0 0.00 0.00 0.00 24 1024.7
20260904190017 75 158 1.0 2.0 0.00 0.00 0.00 25 1024.7
20260904185042 74 68 3.0 8.0 0.00 0.00 0.00 26 1024.6
20260904184042 74 248 2.0 7.0 0.00 0.00 0.00 26 1024.8
20260904183042 76 180 5.0 10.0 0.00 0.00 0.00 25 1025.0
20260904182016 75 270 2.0 5.0 0.00 0.00 0.00 25 1025.2
20260904181017 75 203 4.0 9.0 0.00 0.00 0.00 25 1025.2
20260904180022 74 270 5.0 11.0 0.00 0.00 0.00 26 1025.1
20260904175022 75 270 6.0 15.0 0.00 0.00 0.00 26 1025.2
20260904174042 74 293 5.0 13.0 0.00 0.00 0.00 28 1025.2
20260904173022 73 248 6.0 16.0 0.00 0.00 0.00 28 1025.3
20260904172022 73 203 7.0 14.0 0.00 0.00 0.00 27 1025.1
20260904171042 73 180 7.0 15.0 0.00 0.00 0.00 28 1025.2
20260904170022 72 203 7.0 16.0 0.00 0.00 0.00 29 1025.0
20260904165016 72 180 8.0 13.0 0.00 0.00 0.00 28 1025.0
20260904164022 72 248 5.0 12.0 0.00 0.00 0.00 28 1025.0
20260904163022 72 225 7.0 14.0 0.00 0.00 0.00 29 1025.1
20260904162042 70 270 9.0 17.0 0.00 0.00 0.00 31 1024.9
20260904161022 71 248 6.0 15.0 0.00 0.00 0.00 31 1024.8
20260904160022 70 270 7.0 14.0 0.00 0.00 0.00 30 1024.8
20260904155022 70 225 8.0 17.0 0.00 0.00 0.00 32 1025.0
20260904154022 69 270 11.0 21.0 0.00 0.00 0.00 31 1024.7
20260904153022 70 270 8.0 16.0 0.00 0.00 0.00 30 1024.8
20260904152042 69 203 6.0 15.0 0.00 0.00 0.00 33 1024.8
20260904151022 69 203 6.0 12.0 0.00 0.00 0.00 33 1024.8
20260904150016 68 225 7.0 17.0 0.00 0.00 0.00 34 1024.5
20260904145022 68 225 5.0 12.0 0.00 0.00 0.00 34 1024.8
20260904144017 68 248 5.0 10.0 0.00 0.00 0.00 34 1024.7
20260904143016 67 203 5.0 11.0 0.00 0.00 0.00 34 1024.7
20260904142022 66 203 4.0 10.0 0.00 0.00 0.00 34 1024.7
20260904141017 65 203 4.0 9.0 0.00 0.00 0.00 35 1024.6
20260904140022 64 203 3.0 9.0 0.00 0.00 0.00 36 1024.4
20260904135016 63 203 4.0 11.0 0.00 0.00 0.00 36 1024.3
20260904134020 61 203 4.0 8.0 0.00 0.00 0.00 37 1024.0
20260904133016 60 203 2.0 7.0 0.00 0.00 0.00 38 1023.8
20260904132042 60 203 4.0 7.0 0.00 0.00 0.00 37 1024.0
20260904131022 60 203 5.0 9.0 0.00 0.00 0.00 37 1023.8
20260904130022 60 203 4.0 7.0 0.00 0.00 0.00 37 1023.8
20260904125022 60 203 5.0 10.0 0.00 0.00 0.00 37 1023.9
20260904124022 60 225 5.0 11.0 0.00 0.00 0.00 37 1023.6
20260904123017 60 203 7.0 11.0 0.00 0.00 0.00 36 1023.6
20260904122016 62 225 5.0 11.0 0.00 0.00 0.00 36 1023.7
20260904121022 61 225 6.0 12.0 0.00 0.00 0.00 37 1023.6
20260904120022 60 203 5.0 7.0 0.00 0.00 0.00 37 1023.4
20260904115022 60 225 5.0 8.0 0.00 0.00 0.00 37 1023.5
20260904114022 60 225 5.0 10.0 0.00 0.00 0.00 36 1023.3
20260904113016 60 225 4.0 12.0 0.00 0.00 0.00 36 1023.3